Weather History for KCKC - December, 2012

Change the Weather History Date:

Sunday, December 9, 2012

  Actual Average Record
Temperature  
Mean Temperature 19 °F -  
Max Temperature 26 °F 25 °F 44 °F (2006)
Min Temperature 12 °F 13 °F -14 °F (2007)
Degree Days  
Heating Degree Days 46    
Moisture  
Dew Point 17 °F    
Average Humidity 83    
Maximum Humidity 93    
Minimum Humidity 79    
Precipitation  
Precipitation 0.14 in - - ()
Sea Level Pressure  
Sea Level Pressure 30.02 in    
Wind  
Wind Speed 4 mph (NE)    
Max Wind Speed 14 mph    
Max Gust Speed 18 mph    
Visibility 3 miles    
Events Snow    
Averages and records for this station are not official NWS values.
T = Trace of Precipitation, MM = Missing Value Source: NWS Daily Summary

Daily Weather History Graph

Daily Weather History Graph

Search for Another Location

Airport or City:

Trip Planner

Search our weather history database for the weather conditions in past years. The results will help you decide how hot, cold, wet, or windy it might be!

Date:

Astronomy

Dec. 09, 2012 Rise Set
Actual Time 7:39 AM CST 4:09 PM CST
Civil Twilight 7:03 AM CST 4:44 PM CST
Nautical Twilight 6:23 AM CST 5:24 PM CST
Astronomical Twilight 5:46 AM CST 6:01 PM CST
Moon 2:58 AM CST (12/9) 1:27 PM CST (12/9)
Length of Visible Light 9h 41m
Length of Day
8h 29m
Waning Crescent, 18% of the Moon is Illuminated
Dec 9
Waning Crescent
Dec 13
New
Dec 19
First Quarter
Dec 28
Full
Jan 4
Last Quarter

Hourly Weather History & Observations

Time (CST) Temp. Windchill Dew Point Humidity Pressure Visibility Wind Dir Wind Speed Gust Speed Precip Events Conditions
12:14 AM 19.4 °F 14.3 °F 15.8 °F 86% 30.08 in 10.0 mi East 3.5 mph - N/A   Overcast
12:33 AM 19.4 °F - 15.8 °F 86% 30.08 in 10.0 mi Calm Calm - N/A   Overcast
12:53 AM 19.4 °F - 15.8 °F 86% 30.08 in 10.0 mi Calm Calm - N/A   Overcast
1:14 AM 21.2 °F - 15.8 °F 80% 30.09 in 10.0 mi Calm Calm - N/A   Overcast
1:34 AM 21.2 °F - 15.8 °F 80% 30.09 in 10.0 mi Calm Calm - N/A   Overcast
1:53 AM 21.2 °F 16.4 °F 17.6 °F 86% 30.10 in 5.0 mi ESE 3.5 mph - N/A Snow Light Snow
2:13 AM 21.2 °F - 17.6 °F 86% 30.10 in 3.0 mi Calm Calm - N/A Snow Light Snow
2:34 AM 21.2 °F 14.9 °F 17.6 °F 86% 30.09 in 1.8 mi East 4.6 mph - N/A   Overcast
2:54 AM 21.2 °F 16.4 °F 19.4 °F 93% 30.09 in 2.0 mi East 3.5 mph - N/A   Overcast
3:13 AM 23.0 °F - 19.4 °F 86% 30.09 in 2.0 mi Calm Calm - N/A   Overcast
3:33 AM 23.0 °F - 19.4 °F 86% 30.09 in 1.2 mi Calm Calm - N/A   Overcast
3:54 AM 23.0 °F - 19.4 °F 86% 30.09 in 1.5 mi Calm Calm - N/A   Overcast
4:13 AM 23.0 °F 18.4 °F 19.4 °F 86% 30.08 in 2.0 mi East 3.5 mph - N/A   Overcast
4:34 AM 24.8 °F 19.1 °F 19.4 °F 80% 30.08 in 1.5 mi East 4.6 mph - N/A   Overcast
4:53 AM 24.8 °F 19.1 °F 19.4 °F 80% 30.08 in 1.5 mi East 4.6 mph - N/A Snow Light Snow
5:14 AM 24.8 °F 20.5 °F 21.2 °F 86% 30.08 in 1.5 mi East 3.5 mph - N/A   Overcast
5:34 AM 24.8 °F 20.5 °F 21.2 °F 86% 30.08 in 1.0 mi East 3.5 mph - N/A Snow Light Snow
6:13 AM 24.8 °F - 21.2 °F 86% 30.08 in 1.8 mi Calm Calm - N/A   Overcast
6:34 AM 24.8 °F - 21.2 °F 86% 30.09 in 2.0 mi Calm Calm - 0.01 in   Overcast
6:54 AM 24.8 °F - 21.2 °F 86% 30.09 in 2.5 mi Calm Calm - 0.02 in   Overcast
7:13 AM 24.8 °F - 21.2 °F 86% 30.09 in 2.0 mi Calm Calm - N/A   Overcast
7:34 AM 24.8 °F - 21.2 °F 86% 30.09 in 3.0 mi Calm Calm - 0.01 in   Overcast
7:54 AM 24.8 °F - 21.2 °F 86% 30.09 in 2.5 mi Calm Calm - 0.02 in   Overcast
8:13 AM 24.8 °F - 21.2 °F 86% 30.09 in 2.5 mi Calm Calm - N/A   Overcast
8:33 AM 24.8 °F - 21.2 °F 86% 30.09 in 1.2 mi Calm Calm - N/A   Overcast
8:53 AM 24.8 °F - 21.2 °F 86% 30.09 in 1.2 mi Calm Calm - 0.01 in   Overcast
9:14 AM 24.8 °F - 21.2 °F 86% 30.09 in 1.0 mi Calm Calm - N/A   Overcast
9:33 AM 26.6 °F 22.6 °F 21.2 °F 80% 30.09 in 1.5 mi ESE 3.5 mph - 0.02 in   Overcast
9:53 AM 26.6 °F - 21.2 °F 80% 30.09 in 2.0 mi Calm Calm - 0.02 in Snow Light Snow
10:14 AM 26.6 °F 21.2 °F 21.2 °F 80% 30.09 in 1.0 mi ESE 4.6 mph - N/A   Overcast
10:34 AM 26.6 °F 21.2 °F 21.2 °F 80% 30.09 in 2.0 mi ESE 4.6 mph - 0.01 in Snow Light Snow
10:53 AM 26.6 °F 22.6 °F 21.2 °F 80% 30.09 in 2.0 mi SE 3.5 mph - 0.01 in Snow Light Snow
11:13 AM 26.6 °F 21.2 °F 23.0 °F 86% 30.08 in 1.2 mi SE 4.6 mph - 0.01 in Snow Light Snow
11:33 AM 26.6 °F 20.0 °F 21.2 °F 80% 30.07 in 1.2 mi ESE 5.8 mph - 0.01 in Snow Light Snow
11:54 AM 26.6 °F 21.2 °F 21.2 °F 80% 30.06 in 1.5 mi ESE 4.6 mph - 0.02 in Snow Light Snow
12:13 PM 26.6 °F 21.2 °F 21.2 °F 80% 30.05 in 1.2 mi ESE 4.6 mph - N/A Snow Light Snow
12:33 PM 26.6 °F 21.2 °F 21.2 °F 80% 30.04 in 1.2 mi SE 4.6 mph - N/A   Overcast
12:53 PM 26.6 °F 21.2 °F 21.2 °F 80% 30.04 in 0.5 mi ESE 4.6 mph - 0.01 in Snow Snow
1:13 PM 24.8 °F 17.9 °F 21.2 °F 86% 30.03 in 0.8 mi East 5.8 mph - N/A Snow Snow
1:33 PM 26.6 °F 19.1 °F 21.2 °F 80% 30.01 in 5.0 mi ENE 6.9 mph - N/A   Mostly Cloudy
1:54 PM 24.8 °F 16.9 °F 21.2 °F 86% 30.00 in 1.8 mi ENE 6.9 mph - N/A Snow Light Snow
2:14 PM 24.8 °F 15.3 °F 21.2 °F 86% 30.00 in 2.0 mi ENE 9.2 mph - 0.02 in   Overcast
2:33 PM 24.8 °F 15.3 °F 19.4 °F 80% 29.99 in 1.8 mi NNE 9.2 mph - 0.02 in Snow Light Snow
2:53 PM 24.8 °F 15.3 °F 19.4 °F 80% 29.99 in 5.0 mi North 9.2 mph - 0.02 in Snow Light Snow
3:14 PM 21.2 °F 13.6 °F 17.6 °F 86% 29.98 in 4.0 mi North 5.8 mph - 0.01 in Snow Light Snow
3:33 PM 21.2 °F 11.7 °F 17.6 °F 86% 29.98 in 4.0 mi North 8.1 mph - 0.01 in Snow Light Snow
3:54 PM 21.2 °F 10.9 °F 17.6 °F 86% 29.98 in 5.0 mi North 9.2 mph - 0.01 in Snow Light Snow
4:14 PM 21.2 °F 11.7 °F 17.6 °F 86% 29.98 in 5.0 mi North 8.1 mph - N/A Snow Light Snow
4:33 PM 19.4 °F 8.6 °F 15.8 °F 86% 29.97 in 3.0 mi North 9.2 mph - N/A Snow Light Snow
4:54 PM 19.4 °F 8.6 °F 15.8 °F 86% 29.97 in 2.5 mi North 9.2 mph - N/A Snow Light Snow
5:13 PM 19.4 °F 10.4 °F 15.8 °F 86% 29.98 in 2.0 mi North 6.9 mph - N/A Snow Light Snow
5:33 PM 19.4 °F 6.6 °F 14.0 °F 80% 29.97 in 2.0 mi North 12.7 mph - N/A Snow Light Snow
5:54 PM 19.4 °F 9.5 °F 14.0 °F 80% 29.97 in 1.8 mi North 8.1 mph - N/A Snow Light Snow
6:13 PM 17.6 °F 5.7 °F 14.0 °F 86% 29.96 in 1.8 mi North 10.4 mph - N/A Snow Light Snow
6:34 PM 17.6 °F 5.0 °F 14.0 °F 86% 29.96 in 1.5 mi North 11.5 mph - N/A Snow Light Snow
6:53 PM 17.6 °F 5.0 °F 14.0 °F 86% 29.96 in 1.5 mi North 11.5 mph - N/A Snow Light Snow
7:13 PM 17.6 °F 6.4 °F 12.2 °F 79% 29.95 in 1.8 mi North 9.2 mph - N/A Snow Light Snow
7:34 PM 17.6 °F 5.0 °F 12.2 °F 79% 29.94 in 2.0 mi North 11.5 mph - N/A Snow Light Snow
7:54 PM 17.6 °F 5.0 °F 12.2 °F 79% 29.94 in 2.5 mi North 11.5 mph 17.3 mph N/A Snow Light Snow
8:14 PM 17.6 °F 4.3 °F 12.2 °F 79% 29.93 in 2.5 mi North 12.7 mph - N/A Snow Light Snow
8:33 PM 17.6 °F 3.7 °F 12.2 °F 79% 29.93 in 2.5 mi North 13.8 mph - N/A Snow Light Snow
8:53 PM 15.8 °F 2.7 °F 10.4 °F 79% 29.93 in 2.5 mi North 11.5 mph - N/A Snow Light Snow
9:14 PM 15.8 °F 1.4 °F 10.4 °F 79% 29.92 in 2.0 mi North 13.8 mph - N/A Snow Light Snow
9:33 PM 15.8 °F 2.7 °F 10.4 °F 79% 29.91 in 1.8 mi North 11.5 mph 18.4 mph N/A Snow Light Snow
9:54 PM 15.8 °F 2.7 °F 10.4 °F 79% 29.90 in 1.5 mi North 11.5 mph 16.1 mph N/A Snow Light Snow
10:13 PM 15.8 °F 2.1 °F 10.4 °F 79% 29.90 in 1.2 mi North 12.7 mph 18.4 mph N/A Snow Light Snow
10:53 PM 14.0 °F -0.8 °F 8.6 °F 79% 29.89 in 4.0 mi North 13.8 mph 18.4 mph N/A Snow Light Snow
11:14 PM 14.0 °F -0.8 °F 8.6 °F 79% 29.88 in 3.0 mi North 13.8 mph - N/A Snow Light Snow
11:34 PM 12.2 °F -3.1 °F 8.6 °F 85% 29.87 in 4.0 mi North 13.8 mph - N/A Snow Light Snow
11:53 PM 12.2 °F -3.1 °F 8.6 °F 85% 29.86 in 4.0 mi North 13.8 mph - N/A Snow Light Snow